Track STARLINK-3928 now! 10-day predictions STARLINK-3928 is classified as:
1 52606U 22052J 22224.58334491 -.00058572 00000-0 -36873-2 0 9997 2 52606 53.2182 17.9566 0001546 62.5919 260.1094 15.08888728 1305